Flag for U.S.A. Weather past 2 weeks in Nashville, Tennessee, U.S.A.

Now
78 °F

Broken clouds.


Feels Like: 80 °F
Forecast: 66 / 94 °F
Wind: 6 mph from Southwest

Location: Nashville International Airport

Current Time: Jul 25, 2014 at 8:23:23 PM

Latest Report: Jul 25, 2014 at 7:53 PM


Visibility: 10 mi

Pressure: 29.95 "Hg

Humidity: 54%

Dew point: 60 °F

Location of NashvilleLocation

Historic Weather in Nashville — Graph

°F

Nashville temperature yesterday

Maximum temperature yesterday: 86 °F (at 4:53 PM)
Minimum temperature yesterday: 70 °F (at 11:53 PM)
Average temperature yesterday: 77 °F

Past Weeks' High & Low Weather Summary

 TemperatureHumidityPressure
High94 °F (Jul 12, 1:53 PM)100% (Jul 19, 5:59 AM)30.18 "Hg (Jul 19, 5:59 AM)
Low57 °F (Jul 16, 5:53 AM)32% (Jul 11, 2:53 PM)29.86 "Hg (Jul 14, 4:53 PM)
Average76 °F69%30.03 "Hg
* Reported Jul 10 6:53 PM — Jul 25 6:53 PM, Nashville, Weather by CustomWeather, © 2014

Note: Actual official high and low records may vary slightly from our data, if they occured in-between our weather recording intervals... More about our weather records

Advertising

Nashville weather history for previous 24 hours

 ConditionsComfort  
Time TempWeatherWind HumidityBarometerVisibility
6:53 PM
Jul 25
81 °FBroken clouds.No wind45%29.96 "Hg10 mi
5:53 PM83 °FBroken clouds.9 mph41%30.00 "Hg10 mi
4:53 PM86 °FPartly sunny.5 mph36%30.01 "Hg10 mi
3:53 PM86 °FPartly sunny.No wind35%29.99 "Hg10 mi
2:53 PM85 °FScattered clouds.No wind36%30.01 "Hg10 mi
1:53 PM86 °FScattered clouds.5 mph35%30.02 "Hg10 mi
12:53 PM84 °FScattered clouds.5 mph41%30.02 "Hg10 mi
11:53 AM81 °FScattered clouds.No wind44%30.05 "Hg10 mi
10:53 AM80 °FBroken clouds.No wind47%30.06 "Hg10 mi
9:53 AM77 °FPartly sunny.No wind54%30.07 "Hg10 mi
8:53 AM74 °FScattered clouds.3 mph67%30.07 "Hg10 mi
7:53 AM68 °FScattered clouds.No wind78%30.06 "Hg10 mi
6:53 AM63 °FPassing clouds.3 mph90%30.05 "Hg10 mi
5:53 AM63 °FPassing clouds.No wind84%30.06 "Hg10 mi
4:53 AM63 °FClear.3 mph84%30.04 "Hg10 mi
3:53 AM64 °FClear.6 mph81%30.02 "Hg10 mi
2:53 AM66 °FClear.3 mph75%30.01 "Hg10 mi
1:53 AM67 °FClear.5 mph73%30.02 "Hg10 mi
12:53 AM68 °FClear.6 mph70%30.02 "Hg10 mi
11:53 PM
Jul 24
70 °FClear.7 mph68%30.02 "Hg10 mi
10:53 PM71 °FClear.8 mph66%30.02 "Hg10 mi
9:53 PM73 °FPassing clouds.6 mph62%30.01 "Hg10 mi
8:53 PM77 °FPassing clouds.9 mph54%29.99 "Hg10 mi
Weather by CustomWeather, © 2014

See weather overviewHow to use our weather pages